Zurück zum Katalog

STARLINK-3992

AktivKommunikationVLEO
NORAD 52627·PAYLOAD·🇺🇸 United States

Gestartet May 14, 2022 von Cape Canaveral Space Force Station

Loading…

Nächste Überflüge (nächste 24 Stunden)

TLE

AktuellSource: CelesTrak SupGP

Epoche: Sep 14, 2026, 20:47 UTC

1 52627C 22052AF  26257.86645833 -.00026661  00000+0 -76282-3 0  2575
2 52627  53.1564 129.0510 0001174  86.4332 299.1837 15.35411140    10

Verfolge STARLINK-3992 in Echtzeit mit AllMySat

Download on the App Store